Starlink 5730

operational
NORAD ID: 55611 Int'l Des: 2023-020 Owner: SPXS Country: US Constellation: starlink
LEOCIRCULAR

Über Starlink 5730

Beschreibung wird geladen...

Live-Position

3D-Globus wird geladen...

Nächste Überflüge

Höhenverlauf

Altitude vs Time

uPlot chart will show altitude changes over time

Zweizeiliger Elementsatz

1 55611U 23020AU 26062.27199928 .00002786 00000-0 22131-3 0 9993
2 55611 43.0047 26.5613 0000695 208.7646 151.3158 15.02519472168100
Epoch: 3. März 2026 • Age: 25 hours

Aktueller Status

Höhe 563.0 km
Geschwindigkeit 7.58 km/s
Subsatellitenpunkt -19.61°S, 47.82°E
Startdatum 12. Feb. 2023
Alter 3 years
Typ internet

Technische Details

Klassifizierung Payload
Masse 305.00 kg
Trockenmasse 290.00 kg
Gesamtmasse 305.00 kg
Länge 0.20 m
Durchmesser 2.80 m
Spannweite 9.00 m
Form Box + pan
Hersteller SPXS
Bus-Typ Starlink
Phasenstatus In Orbit
Besitzer/Staat SPXS/US

Große Konstellationen

Loading constellations...